Telluride, CO

10:49 PM MDT on April 30, 2017 (GMT -0600)
Telluride Regional

Weather History for KTEX - May, 2014

Change the Weather History Date:

Wednesday, May 28, 2014

  Actual Average Record
Temperature  
Mean Temperature 58 °F -  
Max Temperature 71 °F 63 °F 75 °F (1998)
Min Temperature 44 °F 39 °F 32 °F (2012)
Degree Days  
Heating Degree Days 8    
Growing Degree Days 8 (Base 50)    
Moisture  
Dew Point 30 °F    
Average Humidity 34    
Maximum Humidity 57    
Minimum Humidity 17    
Precipitation  
Precipitation 0.00 in - - ()
Sea Level Pressure  
Sea Level Pressure 30.37 in    
Wind  
Wind Speed 6 mph (ESE)    
Max Wind Speed 23 mph    
Max Gust Speed 36 mph    
Visibility 10 miles    
Events Rain , Thunderstorm    
Averages and records for this station are not official NWS values.
T = Trace of Precipitation, MM = Missing Value Source: NWS Daily Summary

Daily Weather History Graph

Daily Weather History Graph

Search for Another Location

Airport or City:

Trip Planner

Search our weather history database for the weather conditions in past years. The results will help you decide how hot, cold, wet, or windy it might be!

Date:

Astronomy

May. 28, 2014 Rise Set
Actual Time 5:52 AM MDT 8:25 PM MDT
Civil Twilight 5:22 AM MDT 8:56 PM MDT
Nautical Twilight 4:44 AM MDT 9:34 PM MDT
Astronomical Twilight 4:02 AM MDT 10:16 PM MDT
Moon 5:59 AM MDT (5/28) 8:27 PM MDT (5/28)
Length of Visible Light 15h 34m
Length of Day
14h 33m
Waning Crescent, 0% of the Moon is Illuminated
May 28
Waning Crescent
May 28
New
Jun 5
First Quarter
Jun 12
Full
Jun 19
Last Quarter

Hourly Weather History & Observations

Time (MDT) Temp. Windchill Dew Point Humidity Pressure Visibility Wind Dir Wind Speed Gust Speed Precip Events Conditions
12:17 AM 51.8 °F - 32.0 °F 47% 30.42 in 10.0 mi ESE 5.8 mph - N/A   Clear
12:37 AM 51.8 °F - 32.0 °F 47% 30.41 in 10.0 mi ESE 8.1 mph - N/A   Clear
12:59 AM 50.0 °F - 32.0 °F 50% 30.41 in 10.0 mi SE 9.2 mph - N/A   Clear
1:17 AM 48.2 °F - 32.0 °F 54% 30.41 in 10.0 mi ESE 8.1 mph - N/A   Clear
1:37 AM 48.2 °F - 30.2 °F 50% 30.40 in 10.0 mi ESE 9.2 mph - N/A   Clear
1:59 AM 48.2 °F - 32.0 °F 54% 30.41 in 10.0 mi ESE 6.9 mph - N/A   Clear
2:17 AM 48.2 °F - 30.2 °F 50% 30.40 in 10.0 mi ESE 8.1 mph - N/A   Clear
2:37 AM 48.2 °F - 30.2 °F 50% 30.40 in 10.0 mi ESE 5.8 mph - N/A   Clear
3:18 AM 48.2 °F - 30.2 °F 50% 30.40 in 10.0 mi SE 9.2 mph - N/A   Clear
3:40 AM 48.2 °F - 30.2 °F 50% 30.39 in 10.0 mi SE 5.8 mph - N/A   Clear
3:57 AM 46.4 °F 42.4 °F 30.2 °F 53% 30.39 in 10.0 mi SE 8.1 mph - N/A   Clear
4:18 AM 46.4 °F 42.9 °F 30.2 °F 53% 30.39 in 10.0 mi SE 6.9 mph - N/A   Clear
4:37 AM 44.6 °F 41.4 °F 30.2 °F 57% 30.40 in 10.0 mi East 5.8 mph - N/A   Clear
4:58 AM 46.4 °F 42.9 °F 30.2 °F 53% 30.40 in 10.0 mi ESE 6.9 mph - N/A   Clear
5:17 AM 48.2 °F - 28.4 °F 46% 30.40 in 10.0 mi SE 5.8 mph - N/A   Clear
6:18 AM 46.4 °F 43.5 °F 28.4 °F 50% 30.40 in 10.0 mi SE 5.8 mph - N/A   Clear
6:38 AM 46.4 °F 42.9 °F 28.4 °F 50% 30.41 in 10.0 mi SE 6.9 mph - N/A   Clear
7:17 AM 50.0 °F - 28.4 °F 43% 30.41 in 10.0 mi SE 8.1 mph - N/A   Clear
7:38 AM 51.8 °F - 30.2 °F 44% 30.41 in 10.0 mi SE 6.9 mph - N/A   Clear
8:17 AM 59.0 °F - 33.8 °F 39% 30.41 in 10.0 mi Calm Calm - N/A   Clear
8:57 AM 64.4 °F - 33.8 °F 32% 30.42 in 10.0 mi Calm Calm - N/A   Clear
9:18 AM 64.4 °F - 32.0 °F 30% 30.42 in 10.0 mi Calm Calm - N/A   Clear
9:38 AM 66.2 °F - 30.2 °F 26% 30.42 in 10.0 mi SE 5.8 mph - N/A   Clear
9:57 AM 66.2 °F - 30.2 °F 26% 30.40 in 10.0 mi East 3.5 mph - N/A   Clear
10:38 AM 69.8 °F - 30.2 °F 23% 30.40 in 10.0 mi East 3.5 mph - N/A   Clear
10:57 AM 69.8 °F - 28.4 °F 21% 30.40 in 10.0 mi Calm Calm - N/A   Clear
11:17 AM 69.8 °F - 26.6 °F 20% 30.40 in 10.0 mi East 3.5 mph - N/A   Clear
11:37 AM 69.8 °F - 24.8 °F 18% 30.40 in 10.0 mi ESE 4.6 mph - N/A   Clear
11:57 AM 71.6 °F - 26.6 °F 19% 30.38 in 10.0 mi North 3.5 mph - N/A   Clear
12:17 PM 69.8 °F - 24.8 °F 18% 30.38 in 10.0 mi Calm Calm - N/A Thunderstorm Scattered Clouds
12:37 PM 71.6 °F - 28.4 °F 20% 30.38 in 10.0 mi Calm Calm - N/A   Scattered Clouds
12:57 PM 69.8 °F - 28.4 °F 21% 30.37 in 10.0 mi West 11.5 mph 20.7 mph N/A   Mostly Cloudy
1:38 PM 66.2 °F - 28.4 °F 24% 30.38 in 10.0 mi SSW 11.5 mph 17.3 mph N/A Thunderstorm Overcast
1:57 PM 66.2 °F - 26.6 °F 23% 30.38 in 10.0 mi SSE 23.0 mph 32.2 mph N/A Thunderstorm Overcast
2:17 PM 64.4 °F - 26.6 °F 24% 30.38 in 10.0 mi WSW 5.8 mph 35.7 mph N/A Thunderstorm Unknown
2:38 PM 68.0 °F - 26.6 °F 21% 30.38 in 10.0 mi WSW 6.9 mph 20.7 mph N/A   Scattered Clouds
3:18 PM 69.8 °F - 26.6 °F 20% 30.36 in 10.0 mi East 3.5 mph - N/A   Scattered Clouds
3:37 PM 71.6 °F - 30.2 °F 22% 30.34 in 10.0 mi ESE 8.1 mph - N/A   Clear
3:57 PM 71.6 °F - 28.4 °F 20% 30.33 in 10.0 mi North 3.5 mph - N/A   Clear
4:17 PM 71.6 °F - 24.8 °F 17% 30.32 in 10.0 mi Calm Calm - N/A   Scattered Clouds
4:37 PM 69.8 °F - 24.8 °F 18% 30.32 in 10.0 mi SSE 13.8 mph 26.5 mph N/A   Overcast
4:57 PM 64.4 °F - 32.0 °F 30% 30.32 in 10.0 mi NE 3.5 mph 23.0 mph N/A Rain Light Rain
5:17 PM 69.8 °F - 26.6 °F 20% 30.32 in 10.0 mi East 10.4 mph - N/A   Mostly Cloudy
5:37 PM 68.0 °F - 30.2 °F 24% 30.32 in 10.0 mi East 9.2 mph - N/A   Mostly Cloudy
5:57 PM 66.2 °F - 32.0 °F 28% 30.30 in 10.0 mi Calm Calm - N/A   Mostly Cloudy
6:17 PM 66.2 °F - 28.4 °F 24% 30.31 in 10.0 mi Calm Calm - N/A   Mostly Cloudy
6:37 PM 66.2 °F - 28.4 °F 24% 30.30 in 10.0 mi Calm Calm - N/A   Overcast
6:57 PM 66.2 °F - 30.2 °F 26% 30.30 in 10.0 mi NW 10.4 mph - N/A   Overcast
7:17 PM 68.0 °F - 24.8 °F 20% 30.29 in 10.0 mi Calm Calm - N/A   Mostly Cloudy
7:58 PM 64.4 °F - 30.2 °F 28% 30.31 in 10.0 mi ESE 5.8 mph - N/A   Mostly Cloudy
8:19 PM 62.6 °F - 30.2 °F 30% 30.31 in 10.0 mi Calm Calm - N/A   Scattered Clouds
8:37 PM 62.6 °F - 32.0 °F 32% 30.31 in 10.0 mi ESE 8.1 mph - N/A   Clear
9:17 PM 57.2 °F - 32.0 °F 38% 30.31 in 10.0 mi ESE 8.1 mph - N/A   Clear
9:37 PM 59.0 °F - 30.2 °F 34% 30.32 in 10.0 mi SE 9.2 mph - N/A   Clear
9:57 PM 57.2 °F - 32.0 °F 38% 30.32 in 10.0 mi SE 10.4 mph - N/A   Clear
10:17 PM 55.4 °F - 32.0 °F 41% 30.32 in 10.0 mi ESE 8.1 mph - N/A   Scattered Clouds
10:37 PM 57.2 °F - 30.2 °F 36% 30.32 in 10.0 mi SE 9.2 mph - N/A   Overcast
10:57 PM 57.2 °F - 30.2 °F 36% 30.33 in 10.0 mi Calm Calm - N/A   Mostly Cloudy
11:17 PM 55.4 °F - 32.0 °F 41% 30.33 in 10.0 mi Calm Calm - N/A   Mostly Cloudy
11:37 PM 57.2 °F - 32.0 °F 38% 30.32 in 10.0 mi ESE 12.7 mph 18.4 mph N/A   Overcast
11:57 PM 59.0 °F - 30.2 °F 34% 30.33 in 10.0 mi East 8.1 mph - N/A   Mostly Cloudy